This demonstration page uses our WeatherBlox Daily Observations layout. Learn more.

Left ArrowRight Arrow

31.31129, -92.44514

Hourly Observations for October 16, 2015

Temp ( °F °C ) Dew Point ( °F °C ) Humidity (%) Winds ( mph kmh ) Pressure ( in mb ) Visibility ( mi km ) Precip ( " mm )
12:53 am 00:53 Clear 64 17.8 53 11.7 68 68 Calm 30.11 1020 10 16 0.00 0.00
1:53 am 01:53 Clear 64 17.8 54 12.2 70 70 Calm 30.11 1020 10 16 0.00 0.00
2:53 am 02:53 Clear 59 15 54 12.2 83 83 Calm 30.12 1020 10 16 0.00 0.00
3:53 am 03:53 Clear 59 15 53 11.7 81 81 Calm 30.12 1020 10 16 0.00 0.00
4:53 am 04:53 Clear 57 13.9 54 12.2 90 90 Calm 30.12 1020 7 11 0.00 0.00
5:53 am 05:53 Clear 55 12.8 49 9.4 80 80 Calm 30.14 1021 8 13 0.00 0.00
6:53 am 06:53 Clear 53 11.7 49 9.4 86 86 NW 3 6 30.16 1021 10 16 0.00 0.00
7:53 am 07:53 Hazy 60 15.6 51 10.6 72 72 Calm 30.20 1023 4 6 0.00 0.00
8:53 am 08:53 Sunny 67 19.4 54 12.2 63 63 NNW 3 6 30.22 1023 9 14 0.00 0.00
9:53 am 09:53 Sunny 75 23.9 50 10 41 41 NE 7 11 30.23 1024 10 16 0.00 0.00
10:53 am 10:53 Sunny 78 25.6 50 10 37 37 N 9 15 30.22 1024 10 16 0.00 0.00
11:53 am 11:53 Sunny 83 28.3 51 10.6 33 33 NE 8 13 30.21 1023 10 16 0.00 0.00
12:53 pm 12:53 Sunny 86 30 49 9.4 28 28 NE 8 13 30.18 1022 10 16 0.00 0.00
1:53 pm 13:53 Sunny 88 31.1 50 10 27 27 N 8 13 30.15 1021 10 16 0.00 0.00
2:53 pm 14:53 Sunny 89 31.7 50 10 26 26 N 14 22 30.12 1020 10 16 0.00 0.00
3:53 pm 15:53 Sunny 89 31.7 49 9.4 25 25 N 8 13 30.11 1020 10 16 0.00 0.00
4:53 pm 16:53 Sunny 86 30 50 10 29 29 N 9 15 30.12 1020 10 16 0.00 0.00
5:53 pm 17:53 Sunny 84 28.9 49 9.4 30 30 NNE 12 19 30.13 1020 10 16 0.00 0.00
6:53 pm 18:53 Clear 77 25 49 9.4 37 37 NNE 7 11 30.16 1021 10 16 0.00 0.00
7:53 pm 19:53 Clear 75 23.9 47 8.3 37 37 NNE 9 15 30.18 1022 10 16 0.00 0.00
8:53 pm 20:53 Clear 72 22.2 44 6.7 37 37 NE 8 13 30.20 1023 10 16 0.00 0.00
9:53 pm 21:53 Clear 70 21.1 41 5 35 35 NE 10 17 30.21 1023 10 16 0.00 0.00
10:53 pm 22:53 Clear 68 20 39 3.9 35 35 NNE 10 17 30.23 1024 10 16 0.00 0.00
11:53 pm 23:53 Clear 66 18.9 37 2.8 34 34 NE 7 11 30.24 1024 10 16 0.00 0.00

Powered by AerisWeather